Tracking 33744 objects as of 13-Apr-2026
HD Live streaming from Space Station
objects crossing your sky now

OBJECT F

Track OBJECT F now!
10-day predictions


NORAD ID: 67751
Int'l Code: 2026-027F
Perigee: 527.6 km
Apogee: 532.8 km
Inclination: 97.5 °
Period: 95.1 minutes
Semi major axis: 6901 km
RCS: Unknown
Launch date: February 12, 2026
Source: People's Republic of China (PRC)
Launch site: ()
Your satellite tracking list
Your tracking list is empty




NASA's NSSDC Master Catalog

Two Line Element Set (TLE):
1 67751U 26027F   26102.49367712  .00002924  00000-0  16326-3 0  9991
2 67751  97.4971 231.0948 0003820 274.6939  85.3856 15.14313251  8981
Source of the keplerian elements: AFSPC